Starlink 32780

operational
NORAD ID: 62746 Int'l Des: 2025-014 Owner: SPXS Country: US Constellation: starlink
LEOCIRCULAR

Starlink 32780について

説明を読み込み中...

リアルタイム位置

3D地球を読み込み中...

次回通過

高度履歴

Altitude vs Time

uPlot chart will show altitude changes over time

軌道要素

1 62746U 25014M 25258.45732048 .00054504 00000-0 19723-2 0 9994
2 62746 43.0013 64.3721 0000660 294.6445 65.4338 15.27635491 36457
Epoch: Sep 15, 2025 • Age: 19 hours

現在のステータス

高度 484.8 km
速度 7.63 km/s
衛星直下点 36.23°N, 98.03°E
打ち上げ日 Jan 21, 2025
運用期間 0.6 years
タイプ internet

技術仕様

分類 Payload
質量 730.00 kg
乾燥質量 700.00 kg
総質量 730.00 kg
長さ 0.30 m
直径 4.10 m
スパン 29.00 m
形状 Box + pan
製造者 SPXS
バスタイプ Starlink V2M
フェーズステータス In Orbit
所有者/国 SPXS/US

大規模コンステレーション

Loading constellations...